EZS952B LFBO-LFSB

Flight info

Callsign EZS952B
Flight time 1h 5m
Altitude 32000
Route MEN DCT NINUN DCT LATAM DCT ETREK/N0400F300 DCT LTP DCT SOPLO DCT OMASI DCT KINNI DCT LAMUR DCT KORED N871 KONOL/N0334F180 Z59 LUMEL
Aircraft A320/M-SDE2E3FGHIJ1RWXYZ/LB1

Departure

Time 2026-05-05 20:12
Airport Toulouse-Blagnac Airport (LFBO)

Arrival

Time 2026-05-05 21:17
Airport EuroAirport Basel–Mulhouse–Freiburg (LFSB)
Time Latitude Longitude Altitude Speed Heading
2026-05-05 19:38 43.62980 1.37318 494 ft 0 kts 44°
2026-05-05 20:02 43.62978 1.37315 494 ft 3 kts 44°
2026-05-05 20:02 43.62958 1.37290 483 ft 4 kts 44°
2026-05-05 20:03 43.62940 1.37265 485 ft 2 kts 44°
2026-05-05 20:03 43.62926 1.37243 485 ft 4 kts 84°
2026-05-05 20:03 43.62934 1.37216 485 ft 4 kts 142°
2026-05-05 20:03 43.62951 1.37198 487 ft 0 kts 142°
2026-05-05 20:06 43.62950 1.37199 488 ft 3 kts 143°
2026-05-05 20:06 43.62931 1.37219 483 ft 6 kts 144°
2026-05-05 20:06 43.62894 1.37256 490 ft 10 kts 142°
2026-05-05 20:06 43.62822 1.37332 494 ft 15 kts 142°
2026-05-05 20:07 43.62765 1.37394 491 ft 14 kts 142°
2026-05-05 20:07 43.62672 1.37480 487 ft 9 kts 166°
2026-05-05 20:07 43.62631 1.37464 487 ft 10 kts 218°
2026-05-05 20:07 43.62587 1.37387 490 ft 12 kts 230°
2026-05-05 20:08 43.62524 1.37336 491 ft 10 kts 162°
2026-05-05 20:08 43.62467 1.37394 491 ft 11 kts 142°
2026-05-05 20:08 43.62357 1.37507 490 ft 17 kts 146°
2026-05-05 20:08 43.62265 1.37605 488 ft 12 kts 133°
2026-05-05 20:09 43.62219 1.37650 489 ft 12 kts 145°
2026-05-05 20:09 43.62145 1.37727 490 ft 14 kts 142°
2026-05-05 20:09 43.62062 1.37814 487 ft 16 kts 143°
2026-05-05 20:09 43.61968 1.37909 484 ft 18 kts 143°
2026-05-05 20:10 43.61866 1.38016 489 ft 19 kts 143°
2026-05-05 20:10 43.61763 1.38123 494 ft 13 kts 143°
2026-05-05 20:10 43.61690 1.38179 494 ft 12 kts 175°
2026-05-05 20:10 43.61624 1.38108 492 ft 13 kts 232°
2026-05-05 20:11 43.61580 1.38014 494 ft 7 kts 265°
2026-05-05 20:11 43.61598 1.37986 494 ft 0 kts 326°
2026-05-05 20:11 43.61642 1.37943 494 ft 36 kts 323°
2026-05-05 20:11 43.62049 1.37519 490 ft 107 kts 323°
2026-05-05 20:12 43.62797 1.36740 496 ft 161 kts 323°
2026-05-05 20:12 43.63725 1.35799 1006 ft 163 kts 322°
2026-05-05 20:12 43.64625 1.34860 1769 ft 163 kts 319°
2026-05-05 20:12 43.65559 1.33824 2157 ft 182 kts 318°
2026-05-05 20:13 43.66608 1.32654 2467 ft 207 kts 319°
2026-05-05 20:13 43.67783 1.31356 2861 ft 230 kts 320°
2026-05-05 20:13 43.69182 1.30119 3456 ft 248 kts 340°
2026-05-05 20:13 43.70927 1.30073 4269 ft 261 kts 15°
2026-05-05 20:14 43.72458 1.31477 5147 ft 273 kts 48°
2026-05-05 20:14 43.73481 1.33764 6066 ft 280 kts 63°
2026-05-05 20:14 43.74262 1.36244 6958 ft 282 kts 66°
2026-05-05 20:14 43.75016 1.38763 7832 ft 285 kts 66°
2026-05-05 20:15 43.75784 1.41319 8649 ft 291 kts 66°
2026-05-05 20:15 43.76675 1.43862 9427 ft 296 kts 59°
2026-05-05 20:15 43.77734 1.46269 10233 ft 300 kts 56°
2026-05-05 20:15 43.78934 1.48772 10507 ft 324 kts 55°
2026-05-05 20:16 43.80229 1.51416 10961 ft 338 kts 55°
2026-05-05 20:16 43.81522 1.54171 11634 ft 345 kts 60°
2026-05-05 20:16 43.82481 1.57232 12340 ft 350 kts 73°
2026-05-05 20:16 43.83194 1.60470 13085 ft 353 kts 74°
2026-05-05 20:17 43.83903 1.63746 13833 ft 357 kts 74°
2026-05-05 20:17 43.84614 1.67060 14484 ft 361 kts 74°
2026-05-05 20:17 43.85331 1.70403 15173 ft 363 kts 74°
2026-05-05 20:17 43.86052 1.73768 15853 ft 366 kts 75°
2026-05-05 20:18 43.86781 1.77163 16496 ft 369 kts 75°
2026-05-05 20:18 43.87521 1.80589 17134 ft 373 kts 75°
2026-05-05 20:18 43.88270 1.84051 17770 ft 377 kts 75°
2026-05-05 20:18 43.89026 1.87547 18381 ft 381 kts 75°
2026-05-05 20:19 43.89784 1.91078 18913 ft 384 kts 75°
2026-05-05 20:19 43.90543 1.94636 19509 ft 385 kts 76°
2026-05-05 20:19 43.91308 1.98203 20097 ft 388 kts 75°
2026-05-05 20:19 43.92346 2.01680 20669 ft 393 kts 64°
2026-05-05 20:20 43.93836 2.04889 21237 ft 399 kts 53°
2026-05-05 20:20 43.95634 2.07845 21799 ft 402 kts 51°
2026-05-05 20:20 43.97458 2.10809 22351 ft 405 kts 52°
2026-05-05 20:20 43.99292 2.13798 22899 ft 408 kts 52°
2026-05-05 20:21 44.01138 2.16815 23460 ft 411 kts 52°
2026-05-05 20:21 44.02972 2.19821 23899 ft 415 kts 52°
2026-05-05 20:21 44.04867 2.22935 24318 ft 418 kts 52°
2026-05-05 20:21 44.06727 2.25996 24729 ft 422 kts 52°
2026-05-05 20:22 44.08627 2.29121 25120 ft 425 kts 52°
2026-05-05 20:22 44.10545 2.32276 25473 ft 429 kts 52°
2026-05-05 20:22 44.12482 2.35461 25821 ft 433 kts 52°
2026-05-05 20:22 44.14438 2.38674 26204 ft 436 kts 52°
2026-05-05 20:23 44.16405 2.41908 26565 ft 439 kts 52°
2026-05-05 20:23 44.18385 2.45173 26939 ft 442 kts 52°
2026-05-05 20:23 44.20374 2.48460 27301 ft 445 kts 52°
2026-05-05 20:23 44.22372 2.51769 27696 ft 447 kts 52°
2026-05-05 20:24 44.24379 2.55096 28068 ft 450 kts 52°
2026-05-05 20:24 44.26396 2.58446 28412 ft 453 kts 52°
2026-05-05 20:24 44.28425 2.61821 28752 ft 455 kts 52°
2026-05-05 20:24 44.30465 2.65222 29097 ft 458 kts 52°
2026-05-05 20:25 44.32518 2.68640 29364 ft 462 kts 52°
2026-05-05 20:25 44.34599 2.72109 29528 ft 469 kts 52°
2026-05-05 20:25 44.36700 2.75615 29797 ft 472 kts 52°
2026-05-05 20:25 44.38816 2.79150 30074 ft 476 kts 52°
2026-05-05 20:26 44.40939 2.82703 30349 ft 477 kts 52°
2026-05-05 20:26 44.43068 2.86272 30629 ft 479 kts 52°
2026-05-05 20:26 44.45204 2.89856 30879 ft 481 kts 52°
2026-05-05 20:26 44.47348 2.93459 31109 ft 483 kts 52°
2026-05-05 20:27 44.49500 2.97080 31330 ft 485 kts 52°
2026-05-05 20:27 44.51664 3.00725 31575 ft 487 kts 52°
2026-05-05 20:27 44.53830 3.04381 31859 ft 488 kts 52°
2026-05-05 20:28 44.58136 3.11665 31955 ft 474 kts 52°
2026-05-05 20:28 44.61964 3.18997 31948 ft 460 kts 64°
2026-05-05 20:29 44.65096 3.26828 31945 ft 460 kts 64°
2026-05-05 20:29 44.68211 3.34598 31944 ft 459 kts 64°
2026-05-05 20:30 44.71341 3.42425 31942 ft 459 kts 64°
2026-05-05 20:30 44.74464 3.50270 31936 ft 460 kts 64°
2026-05-05 20:31 44.77579 3.58115 31933 ft 459 kts 64°
2026-05-05 20:31 44.80694 3.65956 31928 ft 459 kts 64°
2026-05-05 20:32 44.83801 3.73805 31922 ft 458 kts 64°
2026-05-05 20:32 44.86891 3.81660 31891 ft 458 kts 64°
2026-05-05 20:33 44.89991 3.89530 31898 ft 459 kts 64°
2026-05-05 20:33 44.93088 3.97425 31909 ft 460 kts 64°
2026-05-05 20:34 44.96178 4.05345 31912 ft 460 kts 64°
2026-05-05 20:34 44.99257 4.13267 31917 ft 460 kts 64°
2026-05-05 20:35 45.02335 4.21198 31886 ft 460 kts 64°
2026-05-05 20:35 45.05413 4.29131 31901 ft 460 kts 64°
2026-05-05 20:36 45.08493 4.37086 31904 ft 461 kts 64°
2026-05-05 20:36 45.11568 4.45066 31920 ft 462 kts 64°
2026-05-05 20:37 45.14634 4.53053 31919 ft 461 kts 64°
2026-05-05 20:37 45.17670 4.60986 31918 ft 461 kts 64°
2026-05-05 20:38 45.20716 4.68978 31895 ft 461 kts 64°
2026-05-05 20:38 45.23761 4.76975 31902 ft 461 kts 64°
2026-05-05 20:39 45.26806 4.84988 31907 ft 461 kts 64°
2026-05-05 20:39 45.29845 4.93005 31929 ft 461 kts 64°
2026-05-05 20:40 45.32870 5.01028 31932 ft 460 kts 64°
2026-05-05 20:40 45.35884 5.09049 31912 ft 460 kts 64°
2026-05-05 20:41 45.38896 5.17077 31921 ft 460 kts 64°
2026-05-05 20:41 45.41902 5.25111 31927 ft 460 kts 64°
2026-05-05 20:42 45.44912 5.33162 31931 ft 461 kts 64°
2026-05-05 20:42 45.47967 5.41177 31937 ft 461 kts 59°
2026-05-05 20:43 45.52171 5.48073 31909 ft 463 kts 41°
2026-05-05 20:43 45.56980 5.54169 31904 ft 462 kts 41°
2026-05-05 20:44 45.61742 5.60254 31897 ft 462 kts 42°
2026-05-05 20:44 45.66522 5.66402 31929 ft 462 kts 42°
2026-05-05 20:45 45.73690 5.75630 31919 ft 462 kts 42°
2026-05-05 20:45 45.78472 5.81762 31930 ft 461 kts 42°
2026-05-05 20:46 45.83255 5.87906 31961 ft 462 kts 42°
2026-05-05 20:46 45.88025 5.94067 31944 ft 462 kts 42°
2026-05-05 20:47 45.92802 6.00244 31949 ft 463 kts 42°
2026-05-05 20:47 45.97585 6.06449 31952 ft 464 kts 42°
2026-05-05 20:48 46.02373 6.12678 31976 ft 464 kts 42°
2026-05-05 20:48 46.07151 6.18903 31974 ft 463 kts 43°
2026-05-05 20:49 46.11250 6.25970 31953 ft 459 kts 57°
2026-05-05 20:49 46.14917 6.33505 31948 ft 459 kts 57°
2026-05-05 20:50 46.17971 6.39764 31915 ft 459 kts 56°
2026-05-05 20:50 46.22265 6.48577 31914 ft 460 kts 56°
2026-05-05 20:51 46.25903 6.56091 31912 ft 460 kts 57°
2026-05-05 20:51 46.29586 6.63712 31906 ft 460 kts 57°
2026-05-05 20:52 46.33222 6.71238 31906 ft 460 kts 57°
2026-05-05 20:52 46.36877 6.78829 31903 ft 459 kts 57°
2026-05-05 20:53 46.40514 6.86429 31896 ft 459 kts 57°
2026-05-05 20:53 46.44149 6.94051 31902 ft 460 kts 57°
2026-05-05 20:54 46.47790 7.01688 31901 ft 461 kts 57°
2026-05-05 20:54 46.51428 7.09345 31893 ft 461 kts 57°
2026-05-05 20:55 46.55081 7.17014 31901 ft 462 kts 54°
2026-05-05 20:55 46.59609 7.23583 31888 ft 461 kts 34°
2026-05-05 20:56 46.65223 7.28008 31903 ft 459 kts 22°
2026-05-05 20:56 46.68126 7.29952 31791 ft 458 kts 22°
2026-05-05 20:56 46.71007 7.31889 31213 ft 457 kts 22°
2026-05-05 20:57 46.73889 7.33835 30702 ft 455 kts 23°
2026-05-05 20:57 46.75784 7.35120 30346 ft 454 kts 23°
2026-05-05 20:57 46.78636 7.37055 29797 ft 451 kts 23°
2026-05-05 20:57 46.81473 7.38988 29264 ft 448 kts 25°
2026-05-05 20:58 46.84128 7.41301 28841 ft 443 kts 36°
2026-05-05 20:58 46.86454 7.44209 28362 ft 438 kts 46°
2026-05-05 20:58 46.88423 7.47580 27877 ft 434 kts 53°
2026-05-05 20:58 46.90290 7.51021 27389 ft 430 kts 53°
2026-05-05 20:59 46.92141 7.54437 26907 ft 427 kts 53°
2026-05-05 20:59 46.93991 7.57814 26420 ft 424 kts 49°
2026-05-05 20:59 46.96224 7.60598 25900 ft 422 kts 29°
2026-05-05 20:59 46.98929 7.62146 25412 ft 416 kts
2026-05-05 21:00 47.01788 7.62323 24906 ft 409 kts 349°
2026-05-05 21:00 47.04482 7.61189 24434 ft 400 kts 330°
2026-05-05 21:00 47.06758 7.58965 23951 ft 391 kts 316°
2026-05-05 21:00 47.08817 7.56366 23462 ft 389 kts 316°
2026-05-05 21:01 47.10858 7.53765 22936 ft 387 kts 316°
2026-05-05 21:01 47.12852 7.51216 22466 ft 383 kts 316°
2026-05-05 21:01 47.14878 7.48622 22017 ft 380 kts 315°
2026-05-05 21:01 47.16865 7.46078 21552 ft 377 kts 315°
2026-05-05 21:02 47.18835 7.43560 21115 ft 374 kts 315°
2026-05-05 21:02 47.20748 7.41112 20666 ft 371 kts 315°
2026-05-05 21:02 47.22703 7.38610 20214 ft 369 kts 315°
2026-05-05 21:02 47.24629 7.36142 19781 ft 365 kts 315°
2026-05-05 21:03 47.26538 7.33686 19339 ft 363 kts 315°
2026-05-05 21:03 47.28430 7.31250 18911 ft 360 kts 315°
2026-05-05 21:03 47.30308 7.28835 18511 ft 357 kts 315°
2026-05-05 21:03 47.32175 7.26440 18143 ft 353 kts 315°
2026-05-05 21:04 47.34023 7.24062 17616 ft 352 kts 315°
2026-05-05 21:04 47.35856 7.21697 17155 ft 350 kts 315°
2026-05-05 21:04 47.37676 7.19345 16806 ft 345 kts 315°
2026-05-05 21:04 47.39471 7.16997 16320 ft 344 kts 312°
2026-05-05 21:05 47.40961 7.14302 15912 ft 336 kts 298°
2026-05-05 21:05 47.42004 7.11257 15515 ft 330 kts 290°
2026-05-05 21:05 47.42939 7.08173 15134 ft 328 kts 290°
2026-05-05 21:05 47.43868 7.05110 14736 ft 326 kts 290°
2026-05-05 21:06 47.44791 7.02060 14348 ft 324 kts 290°
2026-05-05 21:06 47.45872 6.99135 13953 ft 328 kts 305°
2026-05-05 21:06 47.47619 6.96999 13770 ft 327 kts 330°
2026-05-05 21:06 47.49783 6.96075 13605 ft 325 kts 354°
2026-05-05 21:07 47.52019 6.96409 13295 ft 324 kts 11°
2026-05-05 21:07 47.54203 6.97214 12829 ft 321 kts 13°
2026-05-05 21:07 47.56355 6.98063 12156 ft 319 kts 13°
2026-05-05 21:07 47.58486 6.98917 11514 ft 316 kts 13°
2026-05-05 21:08 47.60603 6.99845 11093 ft 317 kts 20°
2026-05-05 21:08 47.62463 7.01542 10721 ft 313 kts 40°
2026-05-05 21:08 47.64077 7.03695 10080 ft 312 kts 43°
2026-05-05 21:08 47.65643 7.05885 9582 ft 304 kts 43°
2026-05-05 21:09 47.67119 7.07970 9426 ft 284 kts 43°
2026-05-05 21:09 47.68521 7.09955 9022 ft 275 kts 43°
2026-05-05 21:09 47.69875 7.11876 8514 ft 271 kts 43°
2026-05-05 21:09 47.71251 7.13839 8083 ft 270 kts 43°
2026-05-05 21:10 47.72580 7.15741 7755 ft 268 kts 43°
2026-05-05 21:10 47.73918 7.17658 7392 ft 267 kts 43°
2026-05-05 21:10 47.75184 7.19664 7040 ft 265 kts 56°
2026-05-05 21:10 47.76121 7.22009 6699 ft 263 kts 63°
2026-05-05 21:11 47.76978 7.24403 6381 ft 261 kts 63°
2026-05-05 21:11 47.77799 7.26735 6069 ft 250 kts 63°
2026-05-05 21:11 47.78597 7.29016 5582 ft 247 kts 63°
2026-05-05 21:11 47.79381 7.31284 5065 ft 245 kts 67°
2026-05-05 21:12 47.79690 7.33708 4554 ft 237 kts 101°
2026-05-05 21:12 47.79195 7.35979 4103 ft 229 kts 121°
2026-05-05 21:12 47.78473 7.38047 4023 ft 220 kts 124°
2026-05-05 21:12 47.77571 7.39722 4034 ft 197 kts 147°
2026-05-05 21:13 47.76430 7.40749 3989 ft 191 kts 161°
2026-05-05 21:13 47.75233 7.41583 3776 ft 189 kts 161°
2026-05-05 21:13 47.74041 7.42413 3556 ft 189 kts 161°
2026-05-05 21:13 47.72816 7.43267 3290 ft 194 kts 160°
2026-05-05 21:14 47.71636 7.44097 3041 ft 182 kts 161°
2026-05-05 21:14 47.70526 7.44875 2805 ft 171 kts 161°
2026-05-05 21:14 47.69474 7.45611 2586 ft 164 kts 161°
2026-05-05 21:14 47.68477 7.46308 2366 ft 152 kts 161°
2026-05-05 21:15 47.67546 7.46958 2193 ft 144 kts 161°
2026-05-05 21:15 47.66653 7.47581 1995 ft 140 kts 160°
2026-05-05 21:15 47.65768 7.48196 1789 ft 140 kts 158°
2026-05-05 21:15 47.64884 7.48813 1588 ft 140 kts 156°
2026-05-05 21:16 47.64006 7.49427 1389 ft 140 kts 156°
2026-05-05 21:16 47.63124 7.50043 1199 ft 141 kts 154°
2026-05-05 21:16 47.62236 7.50659 1011 ft 141 kts 155°
2026-05-05 21:16 47.61355 7.51277 879 ft 139 kts 156°
2026-05-05 21:17 47.60600 7.51801 880 ft 97 kts 154°
2026-05-05 21:17 47.60131 7.52128 890 ft 56 kts 155°
2026-05-05 21:17 47.59881 7.52301 888 ft 21 kts 154°
2026-05-05 21:17 47.59836 7.52424 890 ft 14 kts 65°
2026-05-05 21:18 47.59878 7.52549 890 ft 12 kts 63°
2026-05-05 21:18 47.59882 7.52562 890 ft 0 kts 63°
2026-05-05 21:20 47.59883 7.52574 890 ft 4 kts 87°
2026-05-05 21:20 47.59862 7.52609 890 ft 5 kts 150°
2026-05-05 21:20 47.59810 7.52644 890 ft 11 kts 156°
2026-05-05 21:21 47.59733 7.52698 890 ft 13 kts 155°
2026-05-05 21:21 47.59654 7.52752 890 ft 9 kts 154°
2026-05-05 21:21 47.59635 7.52826 890 ft 9 kts 68°
2026-05-05 21:21 47.59663 7.52922 890 ft 11 kts 66°
2026-05-05 21:22 47.59697 7.53013 890 ft 9 kts 43°
2026-05-05 21:22 47.59745 7.53034 890 ft 6 kts 27°
2026-05-05 21:22 47.59785 7.53064 890 ft 6 kts 25°
2026-05-05 21:22 47.59811 7.53104 890 ft 6 kts 64°
2026-05-05 21:23 47.59825 7.53146 890 ft 1 kts 64°
2026-05-05 21:23 47.59826 7.53150 890 ft 0 kts 63°